LIRQLIPX

Guest
Details From LIRQ - Firenze
To LIPX - VILLAFRANCA
Flight Number -
Tags generated
Created
Modified
Stats Distance 98 nm / 182 km
Max Altitude 8,600 ft / 2,621 m
Waypoints 3
Social Downloads 7
Likes 0
Share

Download

Looking for another format? Having issues loading an existing format? Contact us
Advertisement - Login to hide

Notes

Basic altitude profile: - Ascent Rate: 2500ft/min - Ascent Speed: 250kts - Cruise Altitude: 35000ft - Cruise Speed: 420kts - Descent Rate: 1500ft/min - Descent Speed: 250kts Options: - Use NATs: no - Use PACOTS: no - Use low airways: yes - Use high airways: no

Route

LIRQ KREVA LIPX

ID Type Via Altitude (ft/m) Position (lat/lon) Dist (leg/tot) Name
O LIRQ APT - 0 / 0 43.80998 / 11.20512 - / 0 nm Firenze
KREVA FIX - 8,600 / 2,621 44.77444 / 11.23500 57 / 57 nm
O LIPX APT - 0 / 0 45.39694 / 10.89042 40 / 98 nm VILLAFRANCA

Altitude Profile

Advertisement - Login to hide

LIRQ

Details ICAO LIRQ (FLR)
Name Firenze-Peretola "Amerigo Vespucci"
Region Italy
Timezone Europe/Rome (UTC+2.0)
Stats Elevation 142 ft / 43 m (AMSL)
Location 43.810000° 11.205100°
Runways 1
Magnetic Variation 3.364° E

METAR

LIRQ 272150Z 10008KT CAVOK 25/14 Q1012

Decode

TAF

TAF LIRQ 271700Z 2718/2818 VRB05KT 9999 FEW040 TEMPO 2812/2818 TSRA

Decode

Departure Runways

ID Width Length Bearing (true/mag) Surface Threshold Overrun Markings Lighting
05 98 ft / 30 m 5,123 ft / 1,561 m 48.10° / 44.74° ASPHALT 338 ft / 103 m 0 ft / 0 m PREC-APP CENTERLINE EDGE THRESHOLD SSALF TDZ REIL-OMNI
23 98 ft / 30 m 5,123 ft / 1,561 m 228.11° / 224.75° ASPHALT 1,903 ft / 580 m 0 ft / 0 m VISUAL CENTERLINE EDGE THRESHOLD REIL-OMNI

LIPX

Details ICAO LIPX (VRN)
Name Verona-Villafranca "Valerio Catullo"
Region Italy
Timezone Europe/Rome (UTC+2.0)
Stats Elevation 236 ft / 72 m (AMSL)
Location 45.397000° 10.890300°
Runways 1
Magnetic Variation 3.368° E

METAR

LIPX 272150Z 01004KT CAVOK 22/16 Q1012

Decode

TAF

TAF LIPX 271700Z 2718/2818 VRB05KT CAVOK TEMPO 2808/2818 4000 TSRA BKN014 BECMG 2809/2811 10015KT TEMPO 2815/2818 10015G25KT

Decode

Destination Runways

ID Width Length Bearing (true/mag) Surface Threshold Overrun Markings Lighting
04 148 ft / 45 m 10,074 ft / 3,071 m 45.59° / 42.23° ASPHALT 194 ft / 59 m 797 ft / 243 m PREC-APP CENTERLINE EDGE THRESHOLD ALSF-II TDZ REIL-OMNI
22 148 ft / 45 m 10,074 ft / 3,071 m 225.61° / 222.25° ASPHALT 1,339 ft / 408 m 184 ft / 56 m PREC-APP CENTERLINE EDGE THRESHOLD SALS REIL-OMNI

Approach Navaids

Runway Type Ident Frequency Range Bearing (true/mag) Slope Elevation
04 MM MM - - 45.80° / 42.43 ° - 239 ft / 73 m (AMSL)
04 DME IVF 110.10 MHz 18 nm / 33 km - - 248 ft / 76 m (AMSL)
04 GS IVF 110.10 MHz 10 nm / 19 km 45.62° / 42.25 ° 3.00° 237 ft / 72 m (AMSL)
04 LOC-ILS IVF 110.10 MHz 18 nm / 33 km 45.62° / 42.25 ° - 237 ft / 72 m (AMSL)
04 OM OM - - 45.80° / 42.43 ° - 239 ft / 73 m (AMSL)

Popular Alternatives